GW4317 Weather Reports


Display with metric or nautical units.
time (UTC)temp
F
wind
direction
speed
MPH
gust
MPH
rain 1hr
in
rain 24hr
in
rain mn
in
humidity
%
barometer
mb
20260504211559 82 153 7.0 13.0 0.00 0.00 0.00 59 1006.7
20260504211100 82 161 6.0 17.0 0.00 0.00 0.00 60 1006.6
20260504210600 81 158 6.0 17.0 0.00 0.00 0.00 60 1007.0
20260504210100 81 214 8.0 17.0 0.00 0.00 0.00 60 1007.1
20260504205559 81 149 8.0 14.0 0.00 0.00 0.00 59 1007.1
20260504205059 81 131 6.0 14.0 0.00 0.00 0.00 60 1007.2
20260504204600 81 150 8.0 14.0 0.00 0.00 0.00 61 1007.3
20260504204059 81 160 6.0 14.0 0.00 0.00 0.00 59 1007.4
20260504203600 81 143 7.0 13.0 0.00 0.00 0.00 60 1007.5
20260504203100 81 150 5.0 14.0 0.00 0.00 0.00 62 1007.6
20260504202600 81 182 6.0 16.0 0.00 0.00 0.00 60 1007.6
20260504202059 81 167 8.0 16.0 0.00 0.00 0.00 58 1007.7
20260504201559 81 193 8.0 16.0 0.00 0.00 0.00 59 1007.7
20260504201100 81 209 7.0 16.0 0.00 0.00 0.00 60 1007.8
20260504200559 81 210 8.0 15.0 0.00 0.00 0.00 60 1008.0
20260504195601 80 110 9.0 18.0 0.00 0.00 0.00 59 1008.2
20260504195100 81 128 7.0 15.0 0.00 0.00 0.00 60 1008.4
20260504194558 80 151 6.0 16.0 0.00 0.00 0.00 61 1008.5
20260504194100 80 165 9.0 16.0 0.00 0.00 0.00 60 1008.5
20260504193600 80 229 7.0 16.0 0.00 0.00 0.00 59 1008.5
20260504193100 80 143 7.0 14.0 0.00 0.00 0.00 59 1008.6
20260504192559 80 196 7.0 15.0 0.00 0.00 0.00 59 1008.6
20260504192100 80 207 6.0 15.0 0.00 0.00 0.00 62 1008.7
20260504191600 80 189 7.0 15.0 0.00 0.00 0.00 59 1008.9
20260504191101 80 204 7.0 15.0 0.00 0.00 0.00 60 1008.9
20260504190600 80 150 7.0 15.0 0.00 0.00 0.00 60 1009.0
20260504190111 80 205 8.0 13.0 0.00 0.00 0.00 61 1009.2
20260504185602 79 170 7.0 15.0 0.00 0.00 0.00 61 1009.4
20260504185100 79 167 6.0 15.0 0.00 0.00 0.00 63 1009.4
20260504184614 78 196 9.0 15.0 0.00 0.00 0.00 60 1009.4
20260504184100 78 181 8.0 16.0 0.00 0.00 0.00 62 1009.5
20260504183600 78 240 8.0 17.0 0.00 0.00 0.00 60 1009.6
20260504183111 78 204 9.0 18.0 0.00 0.00 0.00 60 1009.7
20260504182601 78 205 8.0 18.0 0.00 0.00 0.00 61 1010.0
20260504182100 78 198 8.0 20.0 0.00 0.00 0.00 61 1009.9
20260504181559 78 187 8.0 20.0 0.00 0.00 0.00 61 1009.9
20260504181102 78 211 7.0 18.0 0.00 0.00 0.00 60 1010.0
20260504180559 78 214 8.0 18.0 0.00 0.00 0.00 59 1010.2
20260504175601 78 139 7.0 18.0 0.00 0.00 0.00 61 1010.3
20260504175100 77 215 8.0 16.0 0.00 0.00 0.00 61 1010.3
20260504174609 77 224 9.0 16.0 0.00 0.00 0.00 62 1010.2
20260504174100 77 141 8.0 14.0 0.00 0.00 0.00 61 1010.3
20260504173559 77 217 8.0 18.0 0.00 0.00 0.00 61 1010.4
20260504173104 77 194 7.0 18.0 0.00 0.00 0.00 63 1010.5
20260504172559 76 219 8.0 18.0 0.00 0.00 0.00 61 1010.3
20260504172059 76 154 9.0 16.0 0.00 0.00 0.00 61 1010.6
20260504171558 76 232 8.0 16.0 0.00 0.00 0.00 61 1010.8
20260504171103 76 207 7.0 17.0 0.00 0.00 0.00 64 1010.7
20260504170601 75 231 10.0 17.0 0.00 0.00 0.00 61 1011.0
20260504170108 75 217 9.0 19.0 0.00 0.00 0.00 61 1011.0
20260504151100 71 141 7.0 19.0 0.00 0.00 0.00 68 1011.9
20260504150603 70 222 10.0 19.0 0.00 0.00 0.00 67 1011.8
20260504150103 70 215 10.0 19.0 0.00 0.00 0.00 67 1012.0
20260504141059 68 233 8.0 17.0 0.00 0.00 0.00 71 1012.1
20260504140559 68 142 8.0 17.0 0.00 0.00 0.00 72 1012.3
20260504130600 64 220 6.0 10.0 0.00 0.00 0.00 76 1012.5
20260504120104 62 201 4.0 9.0 0.00 0.00 0.00 74 1012.1
20260504110600 62 194 4.0 7.0 0.00 0.00 0.00 76 1012.2
20260504100600 62 182 3.0 9.0 0.00 0.00 0.00 72 1012.5
20260504100109 62 194 4.0 9.0 0.00 0.00 0.00 72 1012.4
20260504081601 63 184 3.0 9.0 0.00 0.00 0.00 64 1012.9
20260504081103 63 218 4.0 7.0 0.00 0.00 0.00 64 1013.0
20260504080600 63 205 3.0 8.0 0.00 0.00 0.00 65 1013.0
20260504050600 65 161 2.0 5.0 0.00 0.00 0.00 62 1015.1
20260504045559 65 210 1.0 3.0 0.00 0.00 0.00 61 1015.2
20260504045059 65 214 1.0 3.0 0.00 0.00 0.00 61 1015.2
20260504044604 66 162 2.0 4.0 0.00 0.00 0.00 60 1015.1
20260504044100 66 159 2.0 4.0 0.00 0.00 0.00 59 1015.2
20260504043600 66 150 2.0 4.0 0.00 0.00 0.00 59 1015.2
20260504043102 66 215 2.0 7.0 0.00 0.00 0.00 58 1015.3
20260504042600 67 219 2.0 7.0 0.00 0.00 0.00 58 1015.4
20260504042105 67 208 2.0 7.0 0.00 0.00 0.00 57 1015.4
20260504041559 67 167 3.0 4.0 0.00 0.00 0.00 57 1015.4
20260504041100 67 148 2.0 5.0 0.00 0.00 0.00 57 1015.4
20260504040600 67 236 2.0 5.0 0.00 0.00 0.00 56 1015.5
20260504040106 67 148 2.0 5.0 0.00 0.00 0.00 56 1015.4
20260504035600 67 194 3.0 5.0 0.00 0.00 0.00 55 1015.4
20260504035059 68 208 2.0 5.0 0.00 0.00 0.00 55 1015.4
20260504034612 68 127 2.0 5.0 0.00 0.00 0.00 55 1015.3
20260504034102 68 200 2.0 6.0 0.00 0.00 0.00 54 1015.3
20260504033602 68 122 2.0 6.0 0.00 0.00 0.00 54 1015.2
20260504033127 68 146 3.0 6.0 0.00 0.00 0.00 54 1015.3
20260504032601 68 165 2.0 6.0 0.00 0.00 0.00 53 1015.3
20260504032102 68 203 3.0 5.0 0.00 0.00 0.00 52 1015.2
20260504031603 68 204 2.0 6.0 0.00 0.00 0.00 52 1015.2
20260504031100 69 203 2.0 6.0 0.00 0.00 0.00 51 1015.3
20260504030600 69 158 3.0 7.0 0.00 0.00 0.00 51 1015.2
20260504030101 69 209 3.0 7.0 0.00 0.00 0.00 50 1015.2
20260504025600 69 172 2.0 5.0 0.00 0.00 0.00 49 1015.1
20260504025101 70 197 3.0 6.0 0.00 0.00 0.00 49 1015.1
20260504024600 70 199 2.0 6.0 0.00 0.00 0.00 48 1015.0
20260504024104 70 188 2.0 6.0 0.00 0.00 0.00 48 1015.0
20260504023600 70 154 3.0 7.0 0.00 0.00 0.00 47 1015.0
20260504023105 71 167 3.0 8.0 0.00 0.00 0.00 47 1014.9
20260504022600 71 181 3.0 8.0 0.00 0.00 0.00 46 1014.9
20260504022100 71 158 3.0 8.0 0.00 0.00 0.00 46 1014.9
20260504021559 71 113 3.0 8.0 0.00 0.00 0.00 46 1014.9
20260504021100 71 159 3.0 8.0 0.00 0.00 0.00 46 1014.8
20260504020600 72 222 3.0 9.0 0.00 0.00 0.00 45 1014.9
20260504015600 72 170 4.0 9.0 0.00 0.00 0.00 45 1014.9
20260504015103 72 68 4.0 9.0 0.00 0.00 0.00 44 1014.9
20260504014558 72 199 3.0 9.0 0.00 0.00 0.00 44 1014.8
20260504014100 73 161 3.0 10.0 0.00 0.00 0.00 44 1014.8
20260504013600 73 174 6.0 10.0 0.00 0.00 0.00 44 1014.7
20260504013111 72 207 3.0 8.0 0.00 0.00 0.00 44 1014.6
20260504012601 73 178 3.0 7.0 0.00 0.00 0.00 45 1014.6
20260504012102 73 166 3.0 7.0 0.00 0.00 0.00 44 1014.5
20260504011606 73 150 4.0 7.0 0.00 0.00 0.00 44 1014.5
20260504011059 73 160 2.0 6.0 0.00 0.00 0.00 44 1014.6
20260504010559 73 174 2.0 6.0 0.00 0.00 0.00 44 1014.5
20260504010114 74 151 3.0 6.0 0.00 0.00 0.00 43 1014.5
20260504005604 74 208 3.0 6.0 0.00 0.00 0.00 43 1014.4
20260504005100 74 215 2.0 7.0 0.00 0.00 0.00 42 1014.3
20260504004627 75 173 3.0 7.0 0.00 0.00 0.00 42 1014.3
20260504004100 75 199 3.0 7.0 0.00 0.00 0.00 41 1014.3
20260504003603 76 145 2.0 8.0 0.00 0.00 0.00 41 1014.4
20260504003058 76 204 4.0 8.0 0.00 0.00 0.00 40 1014.5
20260504002600 77 155 4.0 8.0 0.00 0.00 0.00 39 1014.5
20260504002100 78 205 4.0 12.0 0.00 0.00 0.00 38 1014.5
20260504001612 79 158 5.0 12.0 0.00 0.00 0.00 37 1014.5
20260504001100 79 202 4.0 9.0 0.00 0.00 0.00 37 1014.5
20260504000559 79 188 4.0 9.0 0.00 0.00 0.00 36 1014.6
20260504000101 79 200 4.0 8.0 0.00 0.00 0.00 36 1014.6
20260503235600 79 217 4.0 12.0 0.00 0.00 0.00 36 1014.6
20260503235100 80 169 5.0 12.0 0.00 0.00 0.00 37 1014.7
20260503234558 80 158 4.0 12.0 0.00 0.00 0.00 37 1014.7
20260503234102 80 209 5.0 12.0 0.00 0.00 0.00 37 1014.8
20260503233601 80 209 6.0 12.0 0.00 0.00 0.00 34 1014.8
20260503233100 81 195 5.0 12.0 0.00 0.00 0.00 35 1014.8
20260503232600 81 176 4.0 12.0 0.00 0.00 0.00 35 1014.7
20260503232100 81 207 5.0 12.0 0.00 0.00 0.00 33 1014.9
20260503231559 81 212 5.0 12.0 0.00 0.00 0.00 32 1014.9
20260503231101 80 173 6.0 12.0 0.00 0.00 0.00 34 1015.0
20260503230601 80 210 4.0 9.0 0.00 0.00 0.00 34 1015.0
20260503230104 81 170 3.0 9.0 0.00 0.00 0.00 35 1015.0
20260503225604 81 252 5.0 9.0 0.00 0.00 0.00 33 1015.0
20260503225100 81 205 3.0 11.0 0.00 0.00 0.00 33 1015.0
20260503224559 81 140 6.0 13.0 0.00 0.00 0.00 32 1015.0
20260503224100 82 215 5.0 13.0 0.00 0.00 0.00 32 1015.3
20260503223558 82 190 4.0 12.0 0.00 0.00 0.00 32 1015.3
20260503223101 82 139 5.0 12.0 0.00 0.00 0.00 33 1015.3
20260503222600 82 167 5.0 11.0 0.00 0.00 0.00 31 1015.2
20260503222101 82 208 6.0 11.0 0.00 0.00 0.00 32 1015.3
20260503221602 82 207 5.0 12.0 0.00 0.00 0.00 33 1015.4
20260503221100 82 170 5.0 12.0 0.00 0.00 0.00 33 1015.5
20260503220601 82 199 6.0 12.0 0.00 0.00 0.00 32 1015.5
20260503220100 82 196 5.0 9.0 0.00 0.00 0.00 32 1015.6
20260503215601 82 191 4.0 12.0 0.00 0.00 0.00 32 1015.6
20260503215100 82 202 4.0 12.0 0.00 0.00 0.00 35 1015.7
20260503214601 81 190 7.0 12.0 0.00 0.00 0.00 32 1015.8
20260503214103 82 212 6.0 13.0 0.00 0.00 0.00 33 1015.8
20260503213600 82 183 7.0 13.0 0.00 0.00 0.00 33 1015.9
20260503213111 82 236 4.0 13.0 0.00 0.00 0.00 32 1016.0
20260503212600 82 157 6.0 13.0 0.00 0.00 0.00 33 1016.0
20260503212102 82 181 5.0 11.0 0.00 0.00 0.00 32 1016.1